RAM667 LFPO-GMTT

Flight info

Callsign RAM667
Flight time 2h 28m
Altitude 37000
Route AGOPA2E/07 AGOPA DCT ARKIP DCT ARMAL DCT ARTAX DCT BEBIX DCT LMG DCT UVELI DCT OSMOB DCT VAVIX DCT NETUK N857 SVL N10 LINTO DCT NOLRO
Aircraft B38M/M-SDE1FGHILORVWXY/HB1

Departure

Time 2026-04-24 19:07
Airport Paris-Orly Airport (LFPO)

Arrival

Time 2026-04-24 21:35
Airport Tangier Ibn Battuta Airport (GMTT)
Time Latitude Longitude Altitude Speed Heading
2026-04-24 18:54 48.72732 2.36839 297 ft 0 kts 22°
2026-04-24 18:56 48.72727 2.36836 302 ft 3 kts 22°
2026-04-24 18:56 48.72708 2.36825 301 ft 3 kts 19°
2026-04-24 18:56 48.72688 2.36816 300 ft 3 kts 14°
2026-04-24 18:57 48.72667 2.36809 302 ft 3 kts
2026-04-24 18:57 48.72647 2.36809 301 ft 3 kts 347°
2026-04-24 18:57 48.72633 2.36819 302 ft 3 kts 294°
2026-04-24 18:57 48.72632 2.36831 302 ft 1 kts 251°
2026-04-24 18:58 48.72633 2.36834 302 ft 0 kts 251°
2026-04-24 18:59 48.72629 2.36819 302 ft 4 kts 251°
2026-04-24 19:00 48.72615 2.36756 297 ft 0 kts 250°
2026-04-24 19:00 48.72611 2.36740 298 ft 4 kts 250°
2026-04-24 19:00 48.72591 2.36663 300 ft 11 kts 247°
2026-04-24 19:00 48.72538 2.36609 300 ft 9 kts 175°
2026-04-24 19:01 48.72487 2.36569 300 ft 9 kts 244°
2026-04-24 19:01 48.72466 2.36464 297 ft 12 kts 254°
2026-04-24 19:01 48.72441 2.36333 300 ft 14 kts 254°
2026-04-24 19:01 48.72414 2.36182 300 ft 16 kts 255°
2026-04-24 19:02 48.72394 2.36073 299 ft 16 kts 255°
2026-04-24 19:02 48.72354 2.35854 299 ft 17 kts 254°
2026-04-24 19:02 48.72327 2.35711 299 ft 12 kts 254°
2026-04-24 19:02 48.72283 2.35616 300 ft 12 kts 209°
2026-04-24 19:03 48.72201 2.35613 300 ft 12 kts 166°
2026-04-24 19:03 48.72114 2.35649 296 ft 14 kts 158°
2026-04-24 19:03 48.72077 2.35676 297 ft 0 kts 147°
2026-04-24 19:05 48.72073 2.35681 297 ft 4 kts 143°
2026-04-24 19:05 48.72025 2.35773 298 ft 16 kts 121°
2026-04-24 19:06 48.71970 2.35910 298 ft 12 kts 117°
2026-04-24 19:06 48.71968 2.35998 298 ft 7 kts 75°
2026-04-24 19:06 48.71993 2.36137 299 ft 34 kts 75°
2026-04-24 19:06 48.72128 2.36866 300 ft 108 kts 74°
2026-04-24 19:07 48.72388 2.38253 356 ft 160 kts 73°
2026-04-24 19:07 48.72689 2.39951 860 ft 174 kts 73°
2026-04-24 19:07 48.73026 2.41759 1602 ft 180 kts 73°
2026-04-24 19:07 48.73363 2.43566 2566 ft 179 kts 74°
2026-04-24 19:08 48.73707 2.45431 3282 ft 188 kts 75°
2026-04-24 19:08 48.74026 2.47367 4091 ft 191 kts 81°
2026-04-24 19:08 48.74145 2.49390 4862 ft 196 kts 89°
2026-04-24 19:08 48.74201 2.51502 5502 ft 209 kts 88°
2026-04-24 19:09 48.74259 2.53846 5931 ft 236 kts 88°
2026-04-24 19:09 48.74181 2.56439 6515 ft 253 kts 102°
2026-04-24 19:09 48.73444 2.58918 7196 ft 269 kts 129°
2026-04-24 19:09 48.71923 2.60641 7915 ft 278 kts 159°
2026-04-24 19:10 48.70024 2.61206 8867 ft 283 kts 174°
2026-04-24 19:10 48.68050 2.61683 9675 ft 290 kts 169°
2026-04-24 19:10 48.66036 2.62115 10493 ft 297 kts 180°
2026-04-24 19:10 48.63966 2.61450 10931 ft 316 kts 207°
2026-04-24 19:11 48.62214 2.59390 11484 ft 328 kts 230°
2026-04-24 19:11 48.60752 2.56652 12064 ft 340 kts 231°
2026-04-24 19:11 48.59253 2.53917 12740 ft 347 kts 231°
2026-04-24 19:11 48.57708 2.51108 12905 ft 347 kts 231°
2026-04-24 19:12 48.56165 2.48306 13038 ft 348 kts 231°
2026-04-24 19:12 48.54599 2.45466 13146 ft 348 kts 231°
2026-04-24 19:12 48.53049 2.42658 13157 ft 348 kts 231°
2026-04-24 19:12 48.51512 2.39877 13243 ft 351 kts 231°
2026-04-24 19:13 48.50460 2.37973 13790 ft 349 kts 231°
2026-04-24 19:13 48.48381 2.34219 14786 ft 356 kts 230°
2026-04-24 19:13 48.46789 2.31348 15544 ft 359 kts 230°
2026-04-24 19:13 48.45178 2.28446 16286 ft 363 kts 230°
2026-04-24 19:14 48.43551 2.25517 17006 ft 367 kts 230°
2026-04-24 19:14 48.41901 2.22553 17723 ft 370 kts 230°
2026-04-24 19:14 48.40240 2.19568 18411 ft 374 kts 230°
2026-04-24 19:14 48.38559 2.16552 19010 ft 378 kts 230°
2026-04-24 19:15 48.36864 2.13514 19604 ft 381 kts 230°
2026-04-24 19:15 48.35148 2.10445 20192 ft 385 kts 230°
2026-04-24 19:15 48.33423 2.07359 20760 ft 388 kts 230°
2026-04-24 19:15 48.31632 2.04301 21335 ft 392 kts 223°
2026-04-24 19:16 48.26747 2.00825 22418 ft 398 kts 186°
2026-04-24 19:16 48.23973 2.00679 22930 ft 402 kts 180°
2026-04-24 19:16 48.21159 2.00681 23409 ft 407 kts 179°
2026-04-24 19:17 48.18307 2.00719 23890 ft 411 kts 179°
2026-04-24 19:17 48.15446 2.00779 24313 ft 414 kts 179°
2026-04-24 19:17 48.12545 2.00855 24733 ft 418 kts 178°
2026-04-24 19:17 48.09630 2.00936 25045 ft 424 kts 178°
2026-04-24 19:18 48.06675 2.01098 25064 ft 423 kts 177°
2026-04-24 19:18 48.03742 2.01280 25111 ft 422 kts 177°
2026-04-24 19:18 48.00803 2.01455 25155 ft 423 kts 177°
2026-04-24 19:18 47.97859 2.01629 25144 ft 423 kts 177°
2026-04-24 19:19 47.94914 2.01801 25204 ft 424 kts 177°
2026-04-24 19:19 47.91962 2.01974 25126 ft 424 kts 177°
2026-04-24 19:19 47.89022 2.02145 25189 ft 424 kts 177°
2026-04-24 19:19 47.86067 2.02318 25153 ft 425 kts 177°
2026-04-24 19:20 47.83115 2.02490 25224 ft 425 kts 177°
2026-04-24 19:20 47.80148 2.02662 25157 ft 426 kts 178°
2026-04-24 19:20 47.77192 2.02834 25138 ft 426 kts 178°
2026-04-24 19:20 47.74224 2.03006 25086 ft 426 kts 178°
2026-04-24 19:21 47.71265 2.03178 25173 ft 427 kts 178°
2026-04-24 19:21 47.68291 2.03351 25155 ft 428 kts 178°
2026-04-24 19:21 47.65305 2.03523 25225 ft 430 kts 178°
2026-04-24 19:21 47.62321 2.03695 25128 ft 429 kts 178°
2026-04-24 19:22 47.60352 2.03808 25128 ft 429 kts 178°
2026-04-24 19:22 47.56349 2.04037 25121 ft 430 kts 178°
2026-04-24 19:22 47.53364 2.04208 25106 ft 430 kts 178°
2026-04-24 19:22 47.50380 2.04378 25107 ft 430 kts 178°
2026-04-24 19:23 47.47387 2.04549 25122 ft 430 kts 178°
2026-04-24 19:23 47.44392 2.04719 25093 ft 431 kts 178°
2026-04-24 19:23 47.41401 2.04889 25100 ft 431 kts 178°
2026-04-24 19:23 47.38408 2.05060 25099 ft 431 kts 178°
2026-04-24 19:24 47.35407 2.05229 25082 ft 431 kts 179°
2026-04-24 19:24 47.32428 2.04903 25101 ft 429 kts 192°
2026-04-24 19:24 47.29483 2.04124 25096 ft 430 kts 191°
2026-04-24 19:24 47.26578 2.03397 25094 ft 430 kts 191°
2026-04-24 19:25 47.23623 2.02650 25094 ft 430 kts 191°
2026-04-24 19:25 47.20670 2.01905 25079 ft 430 kts 191°
2026-04-24 19:25 47.17729 2.01162 25101 ft 430 kts 191°
2026-04-24 19:25 47.14778 2.00417 25131 ft 430 kts 191°
2026-04-24 19:26 47.11807 1.99668 25312 ft 433 kts 192°
2026-04-24 19:26 47.08850 1.98923 25854 ft 433 kts 192°
2026-04-24 19:26 47.05867 1.98173 26253 ft 436 kts 192°
2026-04-24 19:26 47.02868 1.97420 26750 ft 437 kts 192°
2026-04-24 19:27 46.99858 1.96662 27117 ft 441 kts 192°
2026-04-24 19:27 46.96824 1.95901 27567 ft 442 kts 192°
2026-04-24 19:27 46.93787 1.95143 27967 ft 445 kts 192°
2026-04-24 19:27 46.90726 1.94377 28331 ft 449 kts 192°
2026-04-24 19:28 46.87633 1.93605 28800 ft 449 kts 192°
2026-04-24 19:28 46.84553 1.92836 29212 ft 451 kts 192°
2026-04-24 19:28 46.81454 1.92064 29598 ft 453 kts 192°
2026-04-24 19:28 46.78348 1.91291 30063 ft 453 kts 192°
2026-04-24 19:29 46.72100 1.89738 30716 ft 457 kts 192°
2026-04-24 19:29 46.68969 1.88961 31181 ft 455 kts 193°
2026-04-24 19:29 46.65844 1.88187 31478 ft 457 kts 193°
2026-04-24 19:30 46.62701 1.87409 31840 ft 458 kts 193°
2026-04-24 19:30 46.59564 1.86633 32205 ft 458 kts 193°
2026-04-24 19:30 46.56427 1.85859 32602 ft 457 kts 193°
2026-04-24 19:30 46.53298 1.85087 33071 ft 454 kts 193°
2026-04-24 19:31 46.50187 1.84321 33510 ft 453 kts 193°
2026-04-24 19:31 46.47072 1.83555 33831 ft 454 kts 193°
2026-04-24 19:31 46.43969 1.82793 34326 ft 450 kts 193°
2026-04-24 19:31 46.40891 1.82038 34705 ft 448 kts 193°
2026-04-24 19:32 46.37852 1.81293 34997 ft 448 kts 193°
2026-04-24 19:32 46.34790 1.80543 35359 ft 446 kts 193°
2026-04-24 19:32 46.31728 1.79794 35660 ft 446 kts 193°
2026-04-24 19:32 46.28674 1.79020 35965 ft 444 kts 196°
2026-04-24 19:33 46.25831 1.77495 36345 ft 432 kts 213°
2026-04-24 19:33 46.23383 1.75002 36549 ft 430 kts 221°
2026-04-24 19:33 46.21065 1.72281 36770 ft 430 kts 222°
2026-04-24 19:33 46.18767 1.69507 37078 ft 428 kts 223°
2026-04-24 19:34 46.16496 1.66723 37195 ft 431 kts 223°
2026-04-24 19:34 46.11959 1.61099 37061 ft 427 kts 223°
2026-04-24 19:35 46.07448 1.55491 37142 ft 429 kts 223°
2026-04-24 19:35 46.02937 1.49894 37112 ft 427 kts 223°
2026-04-24 19:36 45.98419 1.44300 37122 ft 429 kts 223°
2026-04-24 19:36 45.94441 1.38092 37076 ft 419 kts 244°
2026-04-24 19:37 45.91690 1.30677 37023 ft 421 kts 243°
2026-04-24 19:37 45.88974 1.23192 37105 ft 425 kts 244°
2026-04-24 19:38 45.86298 1.15710 37105 ft 423 kts 244°
2026-04-24 19:38 45.83617 1.08209 37100 ft 423 kts 243°
2026-04-24 19:39 45.80312 1.01303 37110 ft 424 kts 222°
2026-04-24 19:39 45.75843 0.95738 37050 ft 426 kts 222°
2026-04-24 19:40 45.71326 0.90262 37137 ft 427 kts 221°
2026-04-24 19:40 45.66778 0.84822 37049 ft 425 kts 221°
2026-04-24 19:41 45.62230 0.79401 37093 ft 426 kts 221°
2026-04-24 19:41 45.57674 0.73983 37073 ft 426 kts 221°
2026-04-24 19:42 45.53121 0.68580 37091 ft 428 kts 221°
2026-04-24 19:42 45.48574 0.63197 37169 ft 426 kts 221°
2026-04-24 19:43 45.44005 0.57798 37061 ft 425 kts 221°
2026-04-24 19:43 45.39478 0.52461 37072 ft 426 kts 220°
2026-04-24 19:44 45.34916 0.47095 37125 ft 427 kts 220°
2026-04-24 19:44 45.30351 0.41737 37078 ft 425 kts 220°
2026-04-24 19:45 45.25784 0.36387 37068 ft 426 kts 220°
2026-04-24 19:45 45.21215 0.31047 37095 ft 426 kts 220°
2026-04-24 19:46 45.16650 0.25724 37143 ft 425 kts 220°
2026-04-24 19:46 45.12071 0.20395 37051 ft 425 kts 220°
2026-04-24 19:47 45.07495 0.15079 37061 ft 426 kts 220°
2026-04-24 19:47 45.02918 0.09776 37247 ft 427 kts 220°
2026-04-24 19:47 45.00620 0.07119 36954 ft 424 kts 220°
2026-04-24 19:48 44.98354 0.04501 37170 ft 422 kts 220°
2026-04-24 19:48 44.91477 -0.03429 37137 ft 426 kts 220°
2026-04-24 19:49 44.82287 -0.13989 37162 ft 426 kts 220°
2026-04-24 19:50 44.73074 -0.24528 37089 ft 427 kts 219°
2026-04-24 19:51 44.66188 -0.32378 37059 ft 427 kts 219°
2026-04-24 19:52 44.58866 -0.39501 37049 ft 427 kts 215°
2026-04-24 19:52 44.56431 -0.41850 37196 ft 425 kts 215°
2026-04-24 19:52 44.55728 -0.42529 37209 ft 426 kts 215°
2026-04-24 19:53 44.53073 -0.45095 37098 ft 428 kts 215°
2026-04-24 19:54 44.45742 -0.52169 37094 ft 428 kts 215°
2026-04-24 19:54 44.41672 -0.56089 37095 ft 427 kts 215°
2026-04-24 19:55 44.37566 -0.60035 37094 ft 427 kts 215°
2026-04-24 19:55 44.31875 -0.65494 37099 ft 427 kts 215°
2026-04-24 19:56 44.26966 -0.70138 37100 ft 427 kts 213°
2026-04-24 19:56 44.22015 -0.74687 37107 ft 426 kts 214°
2026-04-24 19:57 44.17062 -0.79243 37115 ft 426 kts 213°
2026-04-24 19:57 44.12119 -0.83782 37117 ft 426 kts 213°
2026-04-24 19:58 44.07179 -0.88309 37119 ft 425 kts 213°
2026-04-24 19:58 44.02233 -0.92832 37120 ft 426 kts 213°
2026-04-24 19:59 43.97278 -0.97354 37124 ft 426 kts 213°
2026-04-24 19:59 43.92321 -1.01868 37129 ft 426 kts 213°
2026-04-24 20:00 43.87368 -1.06370 37137 ft 426 kts 213°
2026-04-24 20:00 43.82432 -1.10848 37139 ft 427 kts 213°
2026-04-24 20:01 43.77423 -1.15383 37139 ft 427 kts 213°
2026-04-24 20:01 43.72478 -1.19851 37130 ft 427 kts 213°
2026-04-24 20:02 43.67496 -1.24342 37132 ft 428 kts 213°
2026-04-24 20:02 43.62511 -1.28827 37142 ft 428 kts 213°
2026-04-24 20:03 43.57524 -1.33306 37162 ft 428 kts 213°
2026-04-24 20:03 43.52531 -1.37781 37163 ft 428 kts 213°
2026-04-24 20:04 43.47540 -1.42245 37160 ft 428 kts 213°
2026-04-24 20:04 43.42541 -1.46708 37158 ft 428 kts 213°
2026-04-24 20:05 43.37546 -1.51158 37164 ft 428 kts 213°
2026-04-24 20:05 43.32541 -1.55609 37166 ft 428 kts 213°
2026-04-24 20:06 43.27520 -1.60008 37152 ft 428 kts 207°
2026-04-24 20:06 43.24747 -1.61406 37159 ft 426 kts 191°
2026-04-24 20:06 43.21812 -1.62045 37154 ft 429 kts 189°
2026-04-24 20:07 43.16905 -1.62987 37161 ft 429 kts 188°
2026-04-24 20:07 43.09981 -1.64179 37158 ft 428 kts 187°
2026-04-24 20:08 43.04057 -1.65162 37149 ft 428 kts 187°
2026-04-24 20:08 42.98145 -1.66136 37116 ft 428 kts 187°
2026-04-24 20:09 42.92225 -1.67111 37129 ft 428 kts 187°
2026-04-24 20:09 42.86320 -1.68081 37131 ft 427 kts 187°
2026-04-24 20:10 42.80423 -1.69047 37138 ft 427 kts 187°
2026-04-24 20:10 42.74547 -1.70075 37126 ft 426 kts 193°
2026-04-24 20:10 42.71785 -1.71459 37144 ft 423 kts 206°
2026-04-24 20:11 42.69118 -1.73194 37118 ft 426 kts 205°
2026-04-24 20:11 42.63785 -1.76681 37132 ft 425 kts 206°
2026-04-24 20:12 42.58477 -1.80227 37130 ft 425 kts 206°
2026-04-24 20:12 42.53212 -1.83755 37122 ft 424 kts 206°
2026-04-24 20:13 42.47918 -1.87297 37111 ft 424 kts 206°
2026-04-24 20:13 42.42628 -1.90830 37121 ft 424 kts 206°
2026-04-24 20:14 42.37330 -1.94361 37123 ft 424 kts 206°
2026-04-24 20:14 42.32044 -1.97883 37123 ft 424 kts 206°
2026-04-24 20:15 42.26750 -2.01402 37128 ft 424 kts 206°
2026-04-24 20:15 42.21451 -2.04909 37123 ft 424 kts 206°
2026-04-24 20:16 42.16157 -2.08408 37129 ft 424 kts 206°
2026-04-24 20:16 42.10868 -2.11900 37132 ft 424 kts 206°
2026-04-24 20:17 42.05579 -2.15385 37139 ft 423 kts 206°
2026-04-24 20:17 41.97637 -2.20606 37137 ft 424 kts 205°
2026-04-24 20:18 41.92334 -2.24084 37141 ft 424 kts 206°
2026-04-24 20:18 41.87022 -2.27561 37137 ft 425 kts 205°
2026-04-24 20:19 41.81710 -2.31033 37140 ft 425 kts 205°
2026-04-24 20:19 41.76396 -2.34499 37140 ft 425 kts 205°
2026-04-24 20:20 41.71074 -2.37964 37136 ft 425 kts 205°
2026-04-24 20:20 41.65759 -2.41418 37134 ft 425 kts 205°
2026-04-24 20:21 41.60443 -2.44866 37133 ft 425 kts 205°
2026-04-24 20:21 41.55120 -2.48312 37134 ft 425 kts 205°
2026-04-24 20:22 41.49802 -2.51750 37134 ft 425 kts 205°
2026-04-24 20:22 41.44477 -2.55184 37133 ft 425 kts 205°
2026-04-24 20:23 41.39153 -2.58611 37138 ft 425 kts 205°
2026-04-24 20:23 41.33828 -2.62033 37126 ft 425 kts 205°
2026-04-24 20:24 41.28868 -2.66220 37106 ft 426 kts 213°
2026-04-24 20:24 41.23954 -2.70724 37134 ft 427 kts 213°
2026-04-24 20:25 41.19109 -2.75178 37138 ft 426 kts 213°
2026-04-24 20:25 41.14230 -2.79656 37122 ft 426 kts 213°
2026-04-24 20:26 41.09357 -2.84120 37127 ft 426 kts 213°
2026-04-24 20:26 41.04478 -2.88581 37128 ft 426 kts 213°
2026-04-24 20:27 40.99607 -2.93027 37122 ft 426 kts 213°
2026-04-24 20:27 40.94732 -2.97469 37113 ft 425 kts 213°
2026-04-24 20:28 40.89848 -3.01910 37102 ft 426 kts 213°
2026-04-24 20:28 40.84974 -3.06335 37121 ft 425 kts 213°
2026-04-24 20:29 40.80093 -3.10758 37104 ft 425 kts 212°
2026-04-24 20:29 40.75217 -3.15168 37106 ft 426 kts 212°
2026-04-24 20:30 40.70330 -3.19580 37088 ft 426 kts 212°
2026-04-24 20:30 40.65436 -3.23990 37079 ft 426 kts 212°
2026-04-24 20:31 40.60536 -3.28399 37085 ft 427 kts 212°
2026-04-24 20:31 40.55636 -3.32798 37083 ft 427 kts 212°
2026-04-24 20:32 40.50728 -3.37198 37075 ft 427 kts 212°
2026-04-24 20:32 40.45816 -3.41592 37067 ft 427 kts 212°
2026-04-24 20:33 40.40904 -3.45979 37078 ft 428 kts 212°
2026-04-24 20:33 40.35981 -3.50368 37086 ft 428 kts 212°
2026-04-24 20:34 40.31081 -3.54729 37099 ft 428 kts 212°
2026-04-24 20:34 40.26114 -3.59141 37103 ft 429 kts 212°
2026-04-24 20:35 40.21211 -3.63489 37099 ft 429 kts 212°
2026-04-24 20:35 40.16231 -3.67898 37100 ft 429 kts 212°
2026-04-24 20:36 40.11321 -3.72237 37101 ft 430 kts 212°
2026-04-24 20:36 40.06363 -3.76607 37088 ft 430 kts 212°
2026-04-24 20:37 40.01403 -3.80974 37084 ft 431 kts 212°
2026-04-24 20:37 39.96430 -3.85344 37086 ft 431 kts 212°
2026-04-24 20:38 39.91454 -3.89709 37085 ft 432 kts 212°
2026-04-24 20:38 39.86462 -3.94079 37090 ft 433 kts 212°
2026-04-24 20:39 39.81463 -3.98449 37082 ft 433 kts 212°
2026-04-24 20:39 39.76450 -4.02824 37084 ft 434 kts 212°
2026-04-24 20:40 39.71437 -4.07190 37087 ft 434 kts 212°
2026-04-24 20:40 39.66412 -4.11559 37089 ft 435 kts 212°
2026-04-24 20:41 39.62231 -4.15188 37089 ft 435 kts 212°
2026-04-24 20:41 39.57190 -4.19557 37092 ft 436 kts 212°
2026-04-24 20:42 39.52139 -4.23926 37096 ft 436 kts 212°
2026-04-24 20:42 39.47085 -4.28290 37099 ft 437 kts 212°
2026-04-24 20:43 39.42029 -4.32648 37102 ft 437 kts 212°
2026-04-24 20:43 39.36967 -4.37004 37103 ft 437 kts 212°
2026-04-24 20:44 39.31907 -4.41350 37098 ft 437 kts 212°
2026-04-24 20:44 39.26846 -4.45689 37101 ft 437 kts 212°
2026-04-24 20:45 39.21778 -4.50028 37106 ft 437 kts 212°
2026-04-24 20:45 39.16718 -4.54351 37103 ft 437 kts 212°
2026-04-24 20:46 39.11650 -4.58675 37102 ft 437 kts 212°
2026-04-24 20:46 39.06588 -4.62985 37098 ft 436 kts 212°
2026-04-24 20:47 39.01556 -4.67263 37099 ft 436 kts 212°
2026-04-24 20:47 38.96454 -4.71590 37098 ft 437 kts 212°
2026-04-24 20:48 38.91407 -4.75864 37097 ft 437 kts 212°
2026-04-24 20:48 38.86333 -4.80153 37101 ft 437 kts 212°
2026-04-24 20:49 38.81242 -4.84448 37097 ft 438 kts 212°
2026-04-24 20:49 38.76151 -4.88737 37098 ft 438 kts 212°
2026-04-24 20:50 38.71060 -4.93018 37094 ft 438 kts 212°
2026-04-24 20:50 38.65958 -4.97300 37091 ft 438 kts 212°
2026-04-24 20:51 38.60856 -5.01576 37091 ft 439 kts 212°
2026-04-24 20:51 38.55750 -5.05847 37095 ft 439 kts 212°
2026-04-24 20:52 38.50607 -5.10063 37090 ft 438 kts 206°
2026-04-24 20:52 38.45138 -5.13498 37092 ft 439 kts 205°
2026-04-24 20:53 38.39645 -5.16919 37094 ft 440 kts 205°
2026-04-24 20:53 38.34141 -5.20336 37101 ft 440 kts 205°
2026-04-24 20:54 38.28632 -5.23749 37095 ft 441 kts 205°
2026-04-24 20:54 38.23114 -5.27163 37096 ft 442 kts 205°
2026-04-24 20:55 38.17610 -5.30562 37098 ft 442 kts 205°
2026-04-24 20:55 38.12033 -5.34000 37096 ft 443 kts 205°
2026-04-24 20:56 38.06517 -5.37395 37094 ft 444 kts 205°
2026-04-24 20:56 38.00953 -5.40813 37096 ft 445 kts 205°
2026-04-24 20:57 37.95380 -5.44231 37094 ft 445 kts 205°
2026-04-24 20:57 37.89799 -5.47649 37092 ft 445 kts 205°
2026-04-24 20:58 37.84216 -5.51061 37089 ft 446 kts 205°
2026-04-24 20:58 37.78627 -5.54471 37087 ft 446 kts 205°
2026-04-24 20:59 37.73031 -5.57881 37092 ft 447 kts 205°
2026-04-24 20:59 37.67427 -5.61289 37093 ft 448 kts 205°
2026-04-24 21:00 37.61807 -5.64702 37093 ft 448 kts 205°
2026-04-24 21:00 37.56201 -5.68098 36646 ft 445 kts 205°
2026-04-24 21:01 37.53401 -5.69792 35806 ft 449 kts 205°
2026-04-24 21:01 37.50590 -5.71493 35256 ft 446 kts 204°
2026-04-24 21:01 37.47806 -5.73176 34807 ft 441 kts 204°
2026-04-24 21:01 37.45053 -5.74839 34293 ft 438 kts 204°
2026-04-24 21:02 37.42230 -5.76212 33583 ft 435 kts 190°
2026-04-24 21:02 37.39257 -5.76782 33025 ft 430 kts 187°
2026-04-24 21:02 37.36323 -5.77359 32616 ft 423 kts 187°
2026-04-24 21:02 37.33426 -5.77910 32127 ft 420 kts 186°
2026-04-24 21:03 37.30548 -5.78442 31614 ft 417 kts 186°
2026-04-24 21:03 37.27694 -5.78963 31110 ft 414 kts 186°
2026-04-24 21:03 37.24843 -5.79481 30625 ft 412 kts 186°
2026-04-24 21:03 37.22020 -5.79993 30130 ft 409 kts 186°
2026-04-24 21:04 37.19205 -5.80504 29556 ft 407 kts 186°
2026-04-24 21:04 37.16409 -5.81010 29070 ft 404 kts 186°
2026-04-24 21:04 37.13645 -5.81511 28594 ft 400 kts 186°
2026-04-24 21:04 37.10894 -5.82008 28127 ft 397 kts 186°
2026-04-24 21:05 37.08174 -5.82499 27673 ft 394 kts 186°
2026-04-24 21:05 37.05466 -5.82989 27231 ft 391 kts 186°
2026-04-24 21:05 37.02780 -5.83473 26792 ft 389 kts 186°
2026-04-24 21:05 37.00113 -5.83955 26345 ft 386 kts 186°
2026-04-24 21:06 36.97463 -5.84432 25927 ft 384 kts 186°
2026-04-24 21:06 36.94853 -5.84902 25522 ft 382 kts 186°
2026-04-24 21:06 36.92228 -5.85374 25101 ft 381 kts 187°
2026-04-24 21:06 36.89615 -5.85844 24689 ft 379 kts 187°
2026-04-24 21:07 36.87009 -5.86313 24285 ft 378 kts 187°
2026-04-24 21:07 36.84410 -5.86779 23880 ft 377 kts 187°
2026-04-24 21:07 36.81814 -5.87245 23431 ft 376 kts 187°
2026-04-24 21:07 36.79235 -5.87708 22992 ft 374 kts 187°
2026-04-24 21:08 36.76671 -5.88167 22596 ft 371 kts 187°
2026-04-24 21:08 36.74129 -5.88623 22198 ft 368 kts 187°
2026-04-24 21:08 36.71607 -5.89074 21821 ft 365 kts 187°
2026-04-24 21:08 36.69107 -5.89521 21449 ft 362 kts 187°
2026-04-24 21:09 36.66626 -5.89965 21072 ft 359 kts 187°
2026-04-24 21:09 36.64163 -5.90405 20698 ft 356 kts 187°
2026-04-24 21:09 36.61718 -5.90841 20321 ft 354 kts 187°
2026-04-24 21:09 36.59287 -5.91275 19960 ft 351 kts 188°
2026-04-24 21:10 36.56873 -5.91705 19600 ft 349 kts 188°
2026-04-24 21:10 36.54481 -5.92131 19244 ft 347 kts 188°
2026-04-24 21:10 36.52096 -5.92556 18874 ft 345 kts 188°
2026-04-24 21:10 36.49730 -5.92977 18514 ft 343 kts 188°
2026-04-24 21:11 36.47374 -5.93396 18120 ft 341 kts 188°
2026-04-24 21:11 36.45044 -5.93810 17744 ft 338 kts 188°
2026-04-24 21:11 36.42718 -5.94222 17380 ft 335 kts 188°
2026-04-24 21:11 36.40426 -5.94629 17031 ft 332 kts 188°
2026-04-24 21:12 36.38151 -5.95033 16685 ft 329 kts 188°
2026-04-24 21:12 36.36651 -5.95299 16455 ft 327 kts 188°
2026-04-24 21:12 36.33655 -5.95830 16000 ft 323 kts 188°
2026-04-24 21:12 36.31440 -5.96222 15660 ft 321 kts 188°
2026-04-24 21:13 36.29237 -5.96612 15326 ft 319 kts 188°
2026-04-24 21:13 36.27051 -5.96999 14988 ft 316 kts 188°
2026-04-24 21:13 36.24882 -5.97383 14664 ft 314 kts 188°
2026-04-24 21:13 36.22709 -5.97528 14286 ft 313 kts 176°
2026-04-24 21:14 36.20532 -5.97391 13941 ft 312 kts 177°
2026-04-24 21:14 36.18401 -5.97270 13589 ft 310 kts 177°
2026-04-24 21:14 36.16256 -5.97153 13246 ft 307 kts 177°
2026-04-24 21:14 36.14133 -5.97041 12919 ft 304 kts 177°
2026-04-24 21:15 36.12028 -5.96930 12598 ft 302 kts 176°
2026-04-24 21:15 36.09944 -5.96821 12278 ft 300 kts 176°
2026-04-24 21:15 36.07842 -5.96713 11952 ft 304 kts 176°
2026-04-24 21:15 36.05714 -5.96602 11617 ft 308 kts 176°
2026-04-24 21:16 36.03568 -5.96491 11283 ft 308 kts 176°
2026-04-24 21:16 36.01432 -5.96380 10953 ft 306 kts 176°
2026-04-24 21:16 35.99322 -5.96271 10627 ft 304 kts 176°
2026-04-24 21:16 35.97219 -5.96162 10377 ft 299 kts 176°
2026-04-24 21:17 35.95172 -5.96056 10234 ft 290 kts 176°
2026-04-24 21:17 35.93181 -5.95953 9967 ft 286 kts 176°
2026-04-24 21:17 35.91186 -5.95850 9614 ft 285 kts 176°
2026-04-24 21:17 35.89875 -5.95782 9423 ft 283 kts 176°
2026-04-24 21:18 35.87258 -5.95646 9016 ft 280 kts 176°
2026-04-24 21:18 35.85317 -5.95579 8703 ft 278 kts 182°
2026-04-24 21:18 35.83464 -5.96228 8371 ft 280 kts 208°
2026-04-24 21:18 35.81990 -5.97767 8095 ft 278 kts 229°
2026-04-24 21:19 35.80770 -5.99601 7808 ft 277 kts 230°
2026-04-24 21:19 35.79545 -6.01472 7450 ft 283 kts 230°
2026-04-24 21:19 35.78123 -6.03151 7072 ft 285 kts 211°
2026-04-24 21:19 35.76320 -6.04086 6757 ft 280 kts 191°
2026-04-24 21:20 35.72513 -6.04742 6190 ft 274 kts 186°
2026-04-24 21:20 35.70630 -6.05066 5889 ft 272 kts 186°
2026-04-24 21:20 35.68808 -6.05658 5551 ft 273 kts 203°
2026-04-24 21:21 35.67260 -6.06993 5249 ft 273 kts 227°
2026-04-24 21:21 35.66274 -6.08928 5128 ft 265 kts 249°
2026-04-24 21:21 35.65774 -6.11066 5017 ft 256 kts 255°
2026-04-24 21:21 35.65313 -6.13139 4887 ft 247 kts 254°
2026-04-24 21:22 35.65044 -6.15187 4742 ft 240 kts 270°
2026-04-24 21:22 35.65418 -6.17097 4572 ft 231 kts 302°
2026-04-24 21:22 35.66478 -6.18478 4446 ft 218 kts 330°
2026-04-24 21:22 35.67382 -6.18976 4430 ft 206 kts 348°
2026-04-24 21:23 35.69166 -6.19405 4317 ft 191 kts 352°
2026-04-24 21:23 35.70464 -6.19668 4235 ft 186 kts 355°
2026-04-24 21:23 35.71729 -6.19759 4057 ft 180 kts 13°
2026-04-24 21:23 35.72839 -6.19143 3794 ft 174 kts 42°
2026-04-24 21:24 35.73549 -6.17982 3530 ft 169 kts 69°
2026-04-24 21:24 35.73741 -6.16590 3294 ft 166 kts 94°
2026-04-24 21:24 35.73659 -6.15166 3068 ft 167 kts 90°
2026-04-24 21:24 35.73692 -6.13740 2854 ft 166 kts 89°
2026-04-24 21:25 35.73737 -6.12373 2721 ft 150 kts 87°
2026-04-24 21:25 35.73773 -6.11121 2572 ft 144 kts 90°
2026-04-24 21:25 35.73770 -6.09901 2448 ft 142 kts 91°
2026-04-24 21:25 35.73759 -6.08691 2351 ft 141 kts 92°
2026-04-24 21:26 35.73735 -6.07485 2184 ft 140 kts 92°
2026-04-24 21:26 35.73712 -6.06297 1985 ft 138 kts 91°
2026-04-24 21:26 35.73690 -6.05119 1780 ft 138 kts 92°
2026-04-24 21:26 35.73667 -6.03943 1586 ft 137 kts 91°
2026-04-24 21:27 35.73644 -6.02763 1395 ft 138 kts 91°
2026-04-24 21:27 35.73622 -6.01587 1213 ft 137 kts 91°
2026-04-24 21:27 35.73598 -6.00407 1033 ft 138 kts 90°
2026-04-24 21:27 35.73583 -5.99624 921 ft 138 kts 90°
2026-04-24 21:28 35.73551 -5.98023 913 ft 139 kts 91°
2026-04-24 21:28 35.73499 -5.96842 1230 ft 134 kts 94°
2026-04-24 21:28 35.73394 -5.95694 828 ft 137 kts 97°
2026-04-24 21:28 35.73261 -5.94535 484 ft 135 kts 97°
2026-04-24 21:29 35.73093 -5.93297 384 ft 155 kts 98°
2026-04-24 21:29 35.72859 -5.92028 333 ft 150 kts 103°
2026-04-24 21:29 35.72496 -5.90887 351 ft 139 kts 123°
2026-04-24 21:29 35.71657 -5.90327 654 ft 152 kts 180°
2026-04-24 21:30 35.70733 -5.90913 893 ft 160 kts 235°
2026-04-24 21:30 35.70504 -5.91793 1038 ft 165 kts 269°
2026-04-24 21:30 35.70648 -5.93685 1245 ft 169 kts 278°
2026-04-24 21:30 35.70736 -5.95170 1136 ft 178 kts 275°
2026-04-24 21:31 35.70830 -5.96636 1010 ft 166 kts 275°
2026-04-24 21:31 35.70892 -5.97589 951 ft 163 kts 276°
2026-04-24 21:31 35.70995 -5.98950 870 ft 159 kts 277°
2026-04-24 21:31 35.71145 -6.00324 645 ft 165 kts 281°
2026-04-24 21:32 35.71390 -6.01690 541 ft 160 kts 287°
2026-04-24 21:32 35.71720 -6.02945 586 ft 150 kts 301°
2026-04-24 21:32 35.72495 -6.03689 657 ft 142 kts 353°
2026-04-24 21:32 35.73406 -6.03368 684 ft 138 kts 39°
2026-04-24 21:33 35.74019 -6.02464 713 ft 140 kts 59°
2026-04-24 21:33 35.74415 -6.01369 776 ft 141 kts 75°
2026-04-24 21:33 35.74503 -6.00157 808 ft 143 kts 96°
2026-04-24 21:33 35.74211 -5.98995 880 ft 144 kts 110°
2026-04-24 21:34 35.73936 -5.97838 811 ft 140 kts 102°
2026-04-24 21:34 35.73753 -5.96639 560 ft 144 kts 99°
2026-04-24 21:34 35.73573 -5.95423 325 ft 145 kts 100°
2026-04-24 21:34 35.73365 -5.94211 96 ft 143 kts 102°
2026-04-24 21:35 35.73234 -5.93131 61 ft 106 kts 91°
2026-04-24 21:35 35.73193 -5.92417 61 ft 62 kts 96°
2026-04-24 21:35 35.73152 -5.91998 62 ft 40 kts 96°
2026-04-24 21:35 35.73128 -5.91820 58 ft 18 kts 117°
2026-04-24 21:36 35.73054 -5.91744 57 ft 11 kts 158°
2026-04-24 21:36 35.72969 -5.91728 62 ft 13 kts 175°
2026-04-24 21:36 35.72887 -5.91721 62 ft 13 kts 176°
2026-04-24 21:36 35.72791 -5.91713 62 ft 15 kts 176°
2026-04-24 21:37 35.72687 -5.91702 62 ft 16 kts 175°
2026-04-24 21:37 35.72633 -5.91697 62 ft 0 kts 175°
2026-04-24 21:37 35.72632 -5.91697 62 ft 1 kts 175°
2026-04-24 21:37 35.72605 -5.91687 62 ft 2 kts 137°
2026-04-24 21:38 35.72602 -5.91673 62 ft 3 kts 96°
2026-04-24 21:38 35.72604 -5.91632 62 ft 6 kts 85°
2026-04-24 21:38 35.72605 -5.91610 62 ft 0 kts 85°